Location: Caribou
(46.8667°N, 68.0167°W)
Time: 16:45:14
(UTC-04:00)

Daily predictions for brighter satellites

Satellite Brightness Start Highest point End
(mag) Time Altitude Azimuth Time Altitude Azimuth Time Altitude Azimuth
SJ-11-01 4.4 20:33:33 10° SSE 20:38:18 87° E 20:43:05 10° NNW
Gbstr 26 Del rocket 3.9 20:33:29 10° WNW 20:39:12 58° NNE 20:43:48 10° E
YAOGAN 6 4.0 20:37:01 10° ESE 20:39:51 23° ENE 20:42:41 10° NNE
Cosmos 1378 Rocket 3.5 20:37:11 10° N 20:41:31 79° E 20:45:51 10° SSE
Cosmos 1408 2.8 20:38:30 10° S 20:42:02 50° E 20:45:35 10° NNE
NOSS 5 (C) 4.1 20:39:36 10° SW 20:42:53 80° SE 20:46:00 10° NE
H-2A R/B 4.4 20:39:53 10° SSW 20:43:16 33° W 20:46:42 10° NNW
Cosmos 1741 Rocket 4.2 20:39:45 10° NNW 20:44:56 59° ENE 20:50:05 10° SE
Cosmos 1733 Rocket 4.2 20:41:19 10° SSW 20:45:34 48° WNW 20:49:49 10° N
Cosmos 1908 Rocket 3.6 20:41:58 10° S 20:46:23 81° E 20:50:52 10° N
PSLV R/B 4.3 20:44:16 10° SE 20:46:48 26° ENE 20:49:21 10° N
Cosmos 1782 4.5 20:49:35 10° NNW 20:53:19 36° W 20:57:00 10° SSW
CZ-4 SHROUD 4.2 20:51:00 10° SE 20:53:46 31° ENE 20:56:35 10° N
MetOp-A 4.4 20:50:40 10° SE 20:55:51 54° ENE 21:01:05 10° N
Cosmos 614 Rocket 4.0 20:52:59 10° NNW 20:58:05 69° ENE 21:03:07 10° SSE
Cosmos 1833 Rocket 3.1 20:52:41 10° NNW 20:58:11 50° ENE 21:03:24 11° SE
Cosmos 2341 Rocket 4.0 20:52:31 10° S 20:58:46 73° E 21:05:01 10° NNE
Envisat 3.1 20:56:34 10° SSE 21:01:39 87° WSW 21:06:46 10° NNW
SL-8 Rocket 4.3 20:56:12 10° SSE 21:02:08 47° E 21:08:03 10° NNE
deb Chang Zheng 4 3.6 20:58:21 10° NNE 21:02:46 66° ESE 21:07:11 10° S
Cosmos 962 Rocket 4.5 20:57:24 10° S 21:03:34 78° E 21:09:51 10° N
Cosmos 1844 Rocket 3.8 20:58:48 10° SW 21:04:16 50° WNW 21:09:47 10° NNE
Cosmos 1825 2.3 21:01:27 10° S 21:05:16 81° W 21:09:08 10° N
Cosmos 2278 Rocket 2.3 21:03:15 10° SSW 21:08:55 86° WNW 21:14:40 10° NNE
Terra 3.5 21:05:46 10° ESE 21:09:06 19° ENE 21:12:25 10° NNE
ERS-1 Rocket 3.8 21:05:56 10° S 21:10:49 50° W 21:15:45 10° NNW
USA 245 3.9 21:09:13 13° SE 21:12:16 45° ENE 21:16:41 10° N
Timation 2 Rocket 4.1 21:06:57 10° NNW 21:12:55 69° WSW 21:18:51 10° SSE
Cosmos 1420 Rocket 3.9 21:09:35 10° SSW 21:14:49 79° ESE 21:20:03 10° NNE
Cosmos 1140 Rocket 4.0 21:09:49 10° NNW 21:14:53 59° WSW 21:19:56 10° S
H-2A R/B 2.4 21:10:44 10° S 21:14:58 64° WSW 21:19:09 10° NNW
ISS -3.1 21:13:10 10° WSW 21:16:26 73° NNW 21:19:42 10° ENE
Okean 3 4.1 21:12:26 10° NNW 21:16:39 56° W 21:20:47 10° S
Cosmos 1295 Rocket 4.5 21:11:32 10° S 21:17:48 73° E 21:24:02 10° NNE
APEX 3.7 21:15:41 10° SSW 21:19:51 76° ESE 21:25:22 10° NNE
Cosmos 1939 Rocket 3.9 21:16:34 10° S 21:20:18 43° W 21:24:07 10° NNW
Cosmos 2154 Rocket 4.5 21:14:34 10° SSW 21:20:43 64° W 21:26:54 10° N
Cosmos 1238 Rocket 3.8 21:17:58 10° NNW 21:21:10 41° W 21:24:53 10° SSW
Cosmos 2151 Rocket 4.0 21:19:34 11° SSE 21:23:43 45° E 21:28:03 10° NNE
BREEZE-M TANK 3.9 21:06:07 10° W 21:23:59 81° S 21:28:01 10° E
CZ-4B R/B 3.9 21:19:42 10° NNE 21:24:20 40° E 21:28:22 13° SSE
Abrixas 3.5 21:22:36 10° SSW 21:25:12 26° SSE 21:26:19 20° ESE
Cosmos 2082 Rocket 2.3 21:20:22 10° NNW 21:26:06 85° WSW 21:30:58 14° SSE
SPOT 5 3.4 21:24:01 10° S 21:29:20 71° WSW 21:34:43 10° NNW
Okean 1 4.3 21:29:08 10° N 21:32:49 32° ENE 21:34:55 20° ESE
Cosmos 1812 3.3 21:34:20 10° N 21:38:03 41° ENE 21:39:59 23° SE
Okean 1 Rocket 4.3 21:36:42 19° ESE 21:38:25 24° E 21:42:02 10° NE
UNK 4.4 21:33:37 10° NNE 21:39:50 73° ESE 21:45:43 10° S
Lacrosse 5 2.8 21:36:08 10° S 21:40:14 25° SE 21:44:22 10° ENE
Meteor 1-18 Rocket 4.3 21:35:33 10° N 21:41:30 75° ENE 21:46:06 17° SSE
Intercosmos 25 3.2 21:38:55 10° SSW 21:42:12 65° W 21:45:25 10° N
H-2A R/B 2.6 21:40:11 20° SE 21:43:38 46° ENE 21:48:38 10° N
Cosmos 2366 rocket 4.0 21:38:00 10° S 21:44:15 71° E 21:50:35 10° NNE
Cosmos 2297 3.8 21:41:54 10° SSW 21:47:37 83° WNW 21:53:25 10° NNE
NOAA 11 4.2 21:46:39 17° SSE 21:50:56 89° WSW 21:56:29 10° NNW
Meteor 1-14 Rocket 4.3 21:45:52 10° SSW 21:51:32 82° WNW 21:57:07 10° N
Okean 2 Rocket 4.4 21:50:51 10° SW 21:55:00 40° WNW 21:59:10 10° N
Okean 1-7 Rocket 4.2 21:51:16 10° N 21:55:33 42° ENE 21:57:29 27° SE
SL-8 R/B 3.8 21:52:45 10° W 21:57:36 75° N 22:01:38 15° E
BREEZE-M DEB (TANK) 2.3 21:55:49 10° WNW 21:57:52 49° N 22:01:33 10° E
SPOT 1/Viking Rocket 3.8 21:55:17 16° S 21:59:23 66° WSW 22:04:37 10° NNW
USA 229 DEB 4.2 21:55:07 10° NW 22:02:01 55° WSW 22:07:00 20° S
USA 229 4.2 21:55:13 10° NW 22:02:08 56° WSW 22:07:06 20° S
ASTEX 1 4.2 21:58:33 10° NNE 22:03:07 35° E 22:04:54 27° SE
NOSS 8 (E) 4.4 22:01:11 10° SW 22:04:38 86° ESE 22:08:31 10° NE
Cosmos 1633 4.4 22:10:31 18° E 22:10:31 18° E 22:12:49 10° NE
Meteor 2-19 Rocket 4.4 22:05:32 15° S 22:10:41 82° E 22:16:48 10° N
ARGOS 3.6 22:09:05 18° S 22:12:59 58° WSW 22:18:18 10° NNW
YAOGAN 6 4.4 22:10:46 12° SSW 22:13:21 25° W 22:16:20 10° NW
CARTOSAT-1 3.5 22:12:41 34° SSE 22:14:28 71° ENE 22:18:47 10° N
Cosmos 2369 Rocket 3.2 22:14:07 25° ESE 22:14:56 26° ESE 22:19:29 10° NE
Cosmos 2218 Rocket 4.5 22:09:50 10° SSW 22:16:10 62° WNW 22:22:32 10° N
Meteor 1-11 Rocket 4.3 22:13:48 28° SE 22:16:15 42° E 22:21:37 10° NNE
Lacrosse 5 rocket 1.2 22:12:40 10° SSW 22:16:28 52° SE 22:20:07 10° ENE
CZ-4 R/B 3.7 22:12:06 10° NNE 22:16:48 88° WNW 22:20:06 19° SSW
BREEZE-M DEB (TANK) 4.1 22:14:13 10° W 22:17:44 68° N 22:29:16 10° E
SL-08 RB Rocket 4.2 22:15:38 22° S 22:18:26 56° W 22:23:02 10° NNW
NOSS 3-1 (A) 4.1 22:12:57 10° NW 22:20:24 75° NE 22:25:30 25° SE
Cosmos 2084 Rocket 4.0 22:18:12 10° NNW 22:21:56 43° NE 22:23:24 29° E
Cosmos 1727 Rocket 4.5 22:19:48 10° NNW 22:25:50 57° W 22:30:27 18° SSW
Gbstr 26 Del rocket 3.4 22:21:16 10° WNW 22:26:16 54° SW 22:27:30 40° SSE
Landsat 7 4.1 22:28:19 28° S 22:30:42 61° W 22:35:26 10° NNW
Cosmos 1331 Rocket 4.0 22:27:09 14° SSW 22:31:36 81° WNW 22:36:48 10° NNE
IGS 5A 3.4 22:32:35 44° S 22:33:53 84° WSW 22:38:05 10° NNW
Cosmos 1503 Rocket 4.2 22:28:48 10° NNW 22:34:02 63° ENE 22:36:02 37° SE
CZ-4C R/B 4.0 22:36:09 32° SSW 22:37:39 49° W 22:41:46 10° NNW
SAR-Lupe-2 3.4 22:37:36 64° SE 22:38:02 74° ENE 22:41:37 10° N
Cosmos 1892 Rocket 4.2 22:34:40 10° N 22:38:48 39° ENE 22:39:37 36° ESE
Cosmos 1943 Rocket 3.8 22:40:11 17° E 22:40:11 17° E 22:43:19 10° ENE
Meteor 1-19 Rocket 4.3 22:34:28 10° N 22:40:22 76° ENE 22:42:45 37° SSE
Cosmos 1110 Rocket 4.4 22:36:06 10° SW 22:41:16 61° WNW 22:46:26 10° NNE
ATLAS 2AS CENTAUR R/B 3.7 22:33:22 10° NW 22:41:18 50° NE 22:46:59 19° ESE
Cosmos 1833 Rocket 4.2 22:37:06 10° NW 22:41:49 28° WSW 22:45:06 16° SSW
Cosmos 1400 Rocket 2.9 22:44:15 55° SE 22:44:43 59° E 22:48:50 10° NNE
Terra 2.1 22:44:33 35° SSW 22:46:24 60° W 22:51:08 10° NNW
NOSS 3-1 (C) 4.1 22:41:28 10° NW 22:48:55 70° SW 22:53:00 32° SSE
Spot 2 3.9 22:44:41 10° NNE 22:48:57 62° ESE 22:49:28 57° SE
Cosmos 1536 2.9 22:49:24 54° ESE 22:49:32 54° E 22:53:27 10° NNE
DMSP B5D2-2 4.0 22:45:22 10° NNE 22:50:37 84° WNW 22:53:13 31° SSW
Cosmos 1025 Rocket 3.0 22:46:41 10° N 22:51:07 80° E 22:52:00 56° SSE
Meteor 2-21 Rocket 4.5 22:48:54 37° SSE 22:51:24 65° E 22:57:33 10° NNE
ISS -1.7 22:50:10 10° WNW 22:53:11 34° N 22:55:25 15° ENE
USA 234 3.5 22:49:52 10° ENE 22:56:05 44° SE 22:58:06 35° S
Cosmos 1821 Rocket 3.9 22:57:21 36° S 23:00:09 82° E 23:06:23 10° N
Cosmos 1605 Rocket 4.3 22:59:04 38° SE 23:01:07 52° E 23:07:17 10° NNE
Meteor 2-21 4.4 22:58:14 33° S 23:01:13 89° W 23:07:28 10° N
Cosmos 1809 Rocket 4.5 23:03:31 32° SSW 23:06:33 82° W 23:12:48 10° N
Cosmos 1455 Rocket 3.7 23:07:10 40° E 23:07:10 40° E 23:11:08 10° NNE
Cosmos 1934 Rocket 3.8 23:05:08 41° S 23:07:23 78° E 23:13:28 10° N
Spot 4 4.4 23:06:34 37° SSW 23:08:03 50° W 23:12:47 10° NNW
Cosmos 1354 Rocket 4.1 23:03:50 10° NNW 23:09:04 66° WSW 23:10:29 46° S
Cosmos 2082 Rocket 4.5 23:06:37 10° WNW 23:09:17 14° W 23:11:56 10° SW
Cosmos 44 Rocket 4.2 23:07:51 10° NNW 23:12:48 44° NE 23:14:41 31° E
Cosmos 2285 Rocket 3.9 23:12:34 38° S 23:15:14 79° ESE 23:21:40 10° NNE
Cosmos 2123 Rocket 3.9 23:09:30 10° N 23:15:48 90° NW 23:17:58 44° S
Okean 1 Rocket 4.4 23:13:53 22° SW 23:16:09 35° WNW 23:20:16 10° N
Cosmos 1602 4.4 23:16:36 43° WSW 23:17:17 48° WNW 23:21:07 10° N
ALOS 2 3.4 23:19:16 36° E 23:19:47 38° ENE 23:23:51 10° N
Cosmos 1356 4.5 23:20:42 39° W 23:21:02 40° WNW 23:24:24 10° N
Lacrosse 5 2.0 23:17:42 10° WSW 23:22:48 74° NW 23:27:55 10° NE
H-2A R/B 3.6 23:20:50 20° SW 23:23:13 28° W 23:27:42 10° NW
Genesis I 4.2 23:21:07 23° WSW 23:23:18 47° NW 23:27:13 10° NNE
Cosmos 1992 Rocket 4.0 23:23:59 54° SE 23:24:27 57° ESE 23:29:34 10° NNE
Meteor 2-4 Rocket 3.8 23:19:20 10° NNW 23:24:45 66° W 23:26:19 45° SSW
Cosmos 2263 4.1 23:27:22 54° S 23:28:30 69° ESE 23:34:08 10° NNE
IKONOS-2 4.4 23:29:50 77° SW 23:30:02 80° WSW 23:34:19 10° NNW
Cosmos 1818 3.6 23:32:09 55° SE 23:32:28 56° ESE 23:37:50 10° NE
Cosmos 1544 Rocket 3.5 23:36:48 69° WSW 23:37:06 73° W 23:41:27 10° N
SL-8 R/B 3.9 23:35:25 10° WNW 23:39:35 54° WSW 23:39:35 54° WSW
H-2A R/B 3.5 23:36:17 10° NNE 23:40:06 36° E 23:40:06 36° E
Cosmos 1633 3.9 23:44:52 33° W 23:45:04 34° WNW 23:48:29 10° N
Cosmos 1833 4.1 23:43:06 10° NNW 23:48:46 87° WSW 23:49:49 61° SSE
Cosmos 1315 Rocket 3.7 23:51:14 41° W 23:51:27 41° WNW 23:55:12 10° N
BREEZE-M DEB (TANK) 4.1 23:34:25 10° W 23:51:28 74° N 23:55:27 13° E
Lacrosse 5 rocket 2.9 23:52:24 10° W 23:55:50 31° NNW 23:59:10 10° NE
